Flag for U.S.A. Weather past 2 weeks in Passaic, New Jersey, U.S.A.

Now
68 °F

Passing clouds.


Feels Like: 68 °F
Forecast: 63 / 79 °F
Wind: 8 mph from Northwest

Location: Teterboro Airport

Current Time: Jul 29, 2014 at 3:10:26 AM

Latest Report: Jul 29, 2014 at 1:51 AM


Visibility: 10 mi

Pressure: 29.73 "Hg

Humidity: 63%

Dew point: 55 °F

Location of PassaicLocation

Historic Weather in Passaic — Graph

°F

Passaic temperature yesterday

Maximum temperature yesterday: 86 °F (at 2:51 PM)
Minimum temperature yesterday: 70 °F (at 11:51 PM)
Average temperature yesterday: 77 °F

Past Weeks' High & Low Weather Summary

 TemperatureHumidityPressure
High96 °F (Jul 23, 4:51 PM)89% (Jul 14, 4:00 AM)30.24 "Hg (Jul 14, 4:00 AM)
Low64 °F (Jul 18, 5:51 AM)28% (Jul 18, 3:51 PM)29.50 "Hg (Jul 28, 1:51 PM)
Average77 °F60%29.94 "Hg
* Reported Jul 14 1:51 AM — Jul 29 1:51 AM, Passaic, Weather by CustomWeather, © 2014

Note: Actual official high and low records may vary slightly from our data, if they occured in-between our weather recording intervals... More about our weather records

Advertising

Passaic weather history for previous 24 hours

 ConditionsComfort  
Time TempWeatherWind HumidityBarometerVisibility
1:51 AM
Jul 29
68 °FPassing clouds.8 mph63%29.73 "Hg10 mi
12:51 AM69 °FPassing clouds.10 mph61%29.70 "Hg10 mi
11:51 PM
Jul 28
70 °FClear.12 mph61%29.68 "Hg10 mi
10:51 PM71 °FClear.10 mph61%29.68 "Hg10 mi
9:51 PM72 °FPassing clouds.14 mph64%29.66 "Hg10 mi
8:51 PM73 °FSunny.13 mph62%29.62 "Hg10 mi
7:51 PM75 °FSunny.13 mph55%29.59 "Hg10 mi
6:51 PM78 °FPartly sunny.16 mph50%29.58 "Hg10 mi
5:51 PM84 °FSunny.16 mph41%29.53 "Hg10 mi
4:51 PM85 °FPassing clouds.18 mph40%29.52 "Hg10 mi
3:51 PM86 °FScattered clouds.15 mph43%29.51 "Hg10 mi
2:51 PM86 °FBroken clouds.14 mph42%29.51 "Hg10 mi
1:51 PM84 °FSunny.14 mph48%29.50 "Hg10 mi
12:51 PM82 °FBroken clouds.12 mph53%29.51 "Hg10 mi
11:51 AM81 °FScattered clouds.13 mph58%29.53 "Hg10 mi
10:51 AM77 °FOvercast.12 mph69%29.54 "Hg10 mi
9:51 AM75 °FOvercast.9 mph74%29.54 "Hg10 mi
8:51 AM76 °FScattered clouds.9 mph74%29.54 "Hg10 mi
7:51 AM74 °FCloudy.6 mph79%29.54 "Hg10 mi
6:51 AM73 °FPartly sunny.8 mph79%29.54 "Hg10 mi
5:51 AM72 °FClear.3 mph81%29.54 "Hg10 mi
4:51 AM72 °FPassing clouds.3 mph84%29.53 "Hg10 mi
3:51 AM74 °FPartly cloudy.12 mph74%29.55 "Hg10 mi
Weather by CustomWeather, © 2014

See weather overviewHow to use our weather pages